Wind_Speed
16 15 14 14 14 14 15 15 15 15 15 15 16 15 14 12 13 14 14 14 14 14 14 14 14 14 14 15 16 16 17 17 16 18 21 19 17 16 11 9 13 14 11 11 12 12 12 13 13 12 12 12 10 12 13 11 12 9 3 3 4 3 4 4 6 4 0 3 3 5 12 6 2 4 9 11 13 16 15 11 12 8 5 15 12 19 28 20
20 18 17 16 15 15 15 15 15 15 15 14 14 14 14 13 13 13 14 14 14 14 13 13 13 14 14 15 16 16 16 16 17 20 21 18 15 15 16 12 11 15 14 12 12 12 12 13 14 14 14 12 9 12 12 10 11 6 1 3 4 4 3 3 5 3 2 4 7 10 14 6 6 8 9 10 13 15 13 9 10 9 10 16 15 24 27 21
22 22 21 19 17 16 15 15 15 15 15 15 14 14 13 13 13 13 14 13 14 15 13 13 14 14 14 14 15 13 13 13 17 20 20 19 17 14 17 18 14 14 15 15 13 12 10 10 13 16 16 11 9 12 10 9 9 4 2 4 4 4 3 5 7 7 8 9 8 8 12 4 9 9 7 9 14 13 11 11 10 14 18 18 20 28 26 23
19 21 23 23 21 19 17 17 16 16 16 15 14 14 14 14 13 14 14 14 14 14 13 12 13 15 14 14 12 10 9 10 13 17 19 16 15 17 18 20 20 16 15 17 14 12 10 10 14 18 16 8 7 11 9 9 8 4 4 3 2 4 4 7 10 11 10 9 5 5 8 2 9 7 8 12 13 8 9 9 4 16 26 25 26 28 26 25
16 18 20 22 23 22 19 18 18 17 16 16 15 14 15 15 14 14 15 15 14 14 14 13 13 14 15 14 10 5 3 4 5 11 14 13 14 19 21 21 23 20 17 18 16 14 11 13 17 17 12 5 7 8 6 10 8 4 4 3 3 5 4 6 7 8 6 6 4 4 6 4 7 6 12 10 4 1 4 5 2 15 26 27 29 29 27 25
17 16 17 18 21 22 21 19 19 18 17 16 15 14 14 15 15 15 16 15 13 15 14 13 13 13 14 14 9 3 4 3 3 9 10 11 13 16 22 23 23 22 20 18 17 15 13 17 18 14 8 4 6 6 6 11 8 4 2 3 7 7 6 7 6 7 7 7 5 4 3 4 6 6 10 5 5 4 1 8 9 17 22 24 27 28 28 25
19 18 17 17 17 19 20 20 19 19 18 17 15 15 14 14 14 15 17 16 14 15 13 12 13 12 14 14 9 5 11 11 5 9 10 9 8 9 18 24 24 24 23 21 19 18 17 21 18 13 9 4 5 6 7 10 7 5 3 1 6 8 9 10 9 10 12 11 9 6 4 7 7 7 8 6 6 4 4 9 14 19 22 23 25 27 27 25
20 19 19 19 17 17 19 20 20 19 18 18 16 16 15 14 14 14 16 17 15 14 13 12 12 12 14 13 9 7 14 19 11 10 9 6 3 2 11 21 25 26 26 24 22 21 20 21 19 14 8 3 6 8 7 7 4 4 4 2 4 6 9 11 10 13 14 10 6 2 3 4 8 11 9 6 6 7 10 14 18 21 21 23 24 25 24 22
21 19 20 20 19 17 17 18 20 20 19 18 17 17 16 15 15 14 15 18 16 15 14 12 11 12 13 13 9 8 16 23 17 13 10 6 4 2 6 17 26 27 27 25 22 21 20 21 21 15 7 4 10 10 7 7 4 5 7 4 4 6 9 10 10 12 9 3 4 7 7 7 14 15 8 6 9 11 15 18 22 23 22 23 23 24 22 21
21 21 20 20 20 19 17 16 18 20 20 19 18 17 16 15 15 14 15 17 17 15 14 12 11 11 11 11 6 5 14 20 21 21 17 16 13 8 6 13 26 29 28 27 23 22 21 20 20 14 8 8 9 7 7 7 3 5 7 5 7 9 10 9 8 8 3 5 8 8 8 8 11 8 4 7 12 15 19 21 23 25 23 23 23 22 23 22
20 21 20 20 20 19 17 16 16 18 20 19 18 18 16 16 15 14 15 16 17 16 13 12 11 10 10 10 7 9 12 11 14 21 20 18 16 12 8 11 24 29 29 27 24 23 19 17 19 13 6 8 9 5 4 5 3 3 4 4 6 7 10 9 7 10 5 5 10 13 9 6 5 4 6 11 15 16 21 22 22 23 21 21 22 21 21 21
19 20 20 20 20 20 18 16 15 16 19 18 18 18 17 16 15 15 15 16 17 16 13 11 11 10 10 13 18 17 12 7 8 13 14 12 12 11 9 11 23 28 28 27 24 22 16 14 18 12 5 9 8 4 4 6 2 2 2 2 3 3 7 8 6 8 6 7 15 15 9 5 6 4 7 12 18 19 21 23 22 21 20 21 20 19 19 19
19 19 19 19 19 19 18 16 14 15 17 19 18 17 17 16 15 15 15 15 16 15 13 12 11 11 10 16 23 18 12 11 10 10 9 8 8 8 7 11 23 27 27 25 23 22 15 14 18 13 8 9 6 3 4 4 2 3 2 1 2 1 5 4 2 5 4 9 16 8 3 4 3 2 4 11 20 21 21 22 21 20 20 21 19 16 16 17
20 19 18 19 19 18 18 16 15 14 16 18 18 17 17 16 15 15 14 15 15 14 14 12 12 12 11 19 23 16 13 16 17 13 8 6 7 5 5 12 22 25 24 22 20 21 16 14 16 12 9 8 5 5 4 1 1 3 3 1 1 3 4 2 1 5 4 7 10 2 1 5 3 2 3 9 18 21 21 21 21 21 19 20 18 16 14 13
20 20 17 18 18 18 18 17 15 14 15 17 18 17 16 16 15 15 14 14 14 13 14 12 11 10 12 21 20 11 12 17 19 15 10 8 8 7 5 12 21 22 21 18 18 19 16 14 13 9 6 6 6 5 1 1 1 1 3 3 1 3 3 3 1 1 2 6 2 4 2 5 4 5 4 8 15 19 20 20 21 20 17 17 17 15 12 9
20 19 16 16 17 17 17 17 15 14 14 15 17 16 16 15 14 15 15 13 13 13 13 11 8 5 7 14 11 5 8 15 18 17 14 12 9 9 8 12 19 20 18 17 15 16 16 12 9 6 4 5 4 3 2 2 2 1 3 4 2 3 2 1 2 5 2 8 3 4 4 5 4 7 7 7 12 16 18 18 19 19 17 16 17 16 13 10
18 17 15 15 16 17 17 16 15 15 14 15 16 16 15 13 12 14 14 12 12 11 10 7 4 5 8 10 7 4 6 11 14 15 15 15 12 10 11 13 18 20 18 17 13 14 15 11 9 5 3 2 2 4 5 5 6 3 2 2 1 2 2 1 4 6 4 7 4 3 4 4 6 10 9 7 11 15 14 13 14 14 16 16 16 16 13 12
18 16 15 14 14 15 16 15 14 14 14 14 15 15 14 12 12 13 13 12 11 7 7 6 3 4 9 11 11 8 6 6 9 14 15 15 15 11 11 13 17 20 18 14 11 13 13 7 6 4 2 3 4 7 8 5 5 6 6 5 2 2 2 0 2 4 4 5 7 5 6 5 8 11 9 8 10 14 12 12 12 7 9 12 13 14 14 13
18 16 15 14 14 15 15 14 14 14 13 13 14 14 13 12 12 13 13 12 10 5 2 7 11 5 4 5 8 11 10 6 6 14 16 16 17 14 10 12 18 22 17 10 8 11 10 5 4 6 6 7 7 9 7 2 4 6 6 5 3 4 2 1 2 3 2 7 7 5 8 9 10 11 10 9 9 12 12 12 12 7 7 11 13 15 14 14
18 16 15 14 14 14 15 14 14 13 12 13 13 12 11 10 7 8 11 14 16 16 11 10 16 17 11 7 4 6 7 5 6 12 17 17 19 17 13 16 20 18 11 8 7 9 9 6 6 8 8 9 7 7 4 3 3 4 4 3 2 3 3 2 2 3 1 4 5 4 11 11 9 9 9 9 10 12 11 10 11 8 7 8 12 16 15 16
18 17 16 15 15 15 15 14 13 12 12 12 12 12 10 10 7 3 6 12 19 24 23 21 20 24 24 17 13 13 11 6 6 11 16 17 20 17 15 17 15 9 6 8 8 6 7 7 7 6 7 10 8 6 6 4 3 3 4 4 2 2 5 3 3 3 2 3 5 9 12 9 7 9 9 10 10 11 10 9 12 14 11 7 8 13 14 15
18 17 16 16 15 15 15 14 13 13 13 13 14 15 13 12 11 6 3 6 12 17 21 24 25 29 32 27 24 22 13 8 7 10 15 19 22 16 13 12 9 6 6 9 8 6 6 6 5 5 7 9 6 6 7 5 3 2 2 4 3 3 5 4 4 4 3 4 7 11 11 8 8 9 10 11 9 10 9 9 13 18 18 14 11 10 10 12
17 16 15 15 15 15 15 15 14 14 15 15 16 18 16 14 13 8 4 4 8 13 16 19 24 30 33 30 25 21 13 8 7 9 16 21 22 17 13 10 7 9 8 9 9 7 6 5 6 7 9 10 6 5 7 4 2 1 2 3 3 2 3 3 5 5 4 5 10 13 9 7 7 8 9 10 10 12 11 12 16 17 19 20 15 8 8 10
16 15 15 15 14 15 15 15 15 15 15 15 16 18 16 15 12 6 3 4 6 10 14 17 20 26 32 27 16 14 16 14 9 9 17 21 21 17 13 10 9 9 8 8 9 7 3 4 10 10 10 13 8 6 7 6 4 2 2 2 3 2 2 5 9 10 10 9 13 14 8 4 4 5 4 7 10 13 12 14 16 15 16 19 17 14 13 12
16 15 14 13 13 14 14 15 16 16 14 15 16 16 15 16 13 7 3 3 5 5 9 14 15 23 29 22 14 11 10 14 17 13 14 20 22 15 11 11 9 8 9 9 9 7 2 5 14 12 8 12 10 7 8 8 6 3 3 3 3 4 7 10 12 10 8 7 9 7 4 3 3 6 6 5 8 10 10 13 14 15 16 17 18 18 16 14
16 14 13 12 11 11 12 13 13 13 14 15 15 14 15 17 15 11 5 2 5 3 3 9 11 15 18 17 18 14 3 9 17 16 14 18 22 16 11 8 4 5 10 9 6 3 2 6 11 11 10 11 10 8 8 8 6 3 4 5 4 5 10 11 9 5 3 5 6 2 0 4 4 5 7 6 8 9 9 11 12 15 17 16 17 17 17 17
16 13 12 10 9 10 10 10 9 10 12 13 15 15 15 16 15 12 6 3 5 6 7 9 10 9 11 16 21 15 2 3 10 14 17 18 19 16 12 7 4 5 6 5 4 2 5 8 8 10 12 9 9 8 6 8 7 3 4 8 7 6 8 9 5 3 3 5 5 2 2 4 5 6 8 9 9 10 10 10 10 13 15 15 15 14 16 19
15 12 11 9 8 8 8 8 8 10 10 10 13 17 16 16 16 11 4 3 2 6 6 8 10 8 9 16 26 17 3 6 10 12 19 20 16 12 9 7 7 8 6 5 7 2 5 10 10 11 11 7 7 6 7 9 5 3 5 7 6 5 5 5 4 5 5 5 5 4 3 3 5 6 9 11 10 11 12 12 11 12 14 14 13 12 16 21
14 14 14 9 5 5 7 9 10 10 8 10 15 15 15 18 16 7 2 3 3 3 3 9 11 9 10 15 23 20 7 2 4 13 21 18 13 8 5 9 11 10 5 3 5 3 3 11 14 12 9 7 6 5 10 10 3 4 8 7 6 5 5 3 2 4 4 3 5 8 6 2 4 6 8 10 11 12 12 12 12 12 14 13 12 15 18 21
12 15 14 5 2 5 4 5 9 7 7 14 16 13 15 18 10 3 2 2 1 2 3 8 9 9 14 13 12 16 9 4 2 16 19 13 12 8 8 14 13 9 4 2 5 3 2 10 14 8 5 6 7 7 8 7 6 9 9 8 7 5 4 3 2 3 2 2 5 12 11 4 4 6 9 9 8 12 14 12 13 15 15 15 14 15 18 21
11 11 10 7 4 3 1 4 5 2 7 13 11 13 17 11 2 3 5 0 1 3 3 5 7 10 16 12 8 10 8 4 3 13 13 8 10 9 10 12 8 7 6 5 6 3 4 8 7 4 6 9 7 6 3 2 7 9 6 6 6 3 2 2 2 1 3 3 2 7 10 5 4 5 9 11 7 11 17 15 16 18 18 18 16 16 17 20
10 7 7 6 4 2 1 3 3 2 5 7 8 15 12 3 3 3 2 1 0 1 1 5 6 8 14 9 6 9 7 2 3 9 11 8 7 8 8 7 6 7 8 8 7 3 4 5 1 2 10 13 9 7 4 1 4 6 5 8 6 3 3 3 3 2 3 2 3 2 7 4 3 1 5 13 10 10 18 19 19 22 22 20 19 18 18 18
8 7 5 4 2 2 2 0 2 1 4 3 8 12 4 1 4 3 1 1 1 2 1 5 7 8 12 8 7 10 7 3 4 7 9 7 7 6 2 2 4 4 5 7 7 5 3 1 2 4 7 11 12 10 6 5 7 7 7 9 7 5 5 5 3 1 2 2 3 2 7 4 2 1 1 8 7 6 17 23 23 23 22 20 20 19 18 20
8 8 6 3 3 2 1 1 1 2 3 2 6 6 1 2 2 1 2 2 4 5 5 3 8 9 9 6 6 11 6 3 7 9 9 9 9 8 4 3 3 3 6 6 4 7 6 2 6 8 4 9 13 8 5 6 6 5 2 4 5 4 4 3 4 3 3 3 3 4 6 3 3 1 2 5 5 4 14 23 23 22 21 20 21 20 20 22
7 7 6 4 3 1 1 0 2 1 2 3 4 2 2 3 1 2 2 3 4 5 8 1 8 9 7 2 5 10 5 1 7 9 9 10 9 8 6 5 3 2 8 8 2 4 5 2 4 4 4 11 12 3 5 9 6 2 1 2 3 3 3 2 1 1 2 3 2 3 3 1 1 1 3 3 4 7 16 23 24 24 22 21 22 22 21 20
6 6 5 4 2 1 1 1 3 2 2 6 4 3 3 2 1 2 2 2 4 7 8 1 7 6 6 4 6 11 6 1 8 7 5 7 8 8 7 4 3 3 6 6 2 2 4 3 2 2 3 10 12 9 7 8 6 3 3 4 2 2 3 3 1 2 1 3 3 3 2 1 1 2 2 5 9 13 18 22 25 25 24 24 23 22 20 20
4 4 4 3 1 1 2 2 2 2 3 7 3 2 1 1 1 0 2 5 7 8 5 3 5 4 6 5 6 12 7 3 8 7 4 6 6 7 8 5 4 5 5 4 1 2 4 4 2 4 6 7 9 14 9 3 4 5 5 6 4 2 1 1 2 2 2 5 2 2 4 4 3 3 5 8 13 16 17 20 23 25 25 24 22 21 22 23
2 2 3 1 1 2 4 1 2 2 1 4 4 3 1 0 1 0 3 7 9 7 3 2 2 2 5 5 6 10 8 5 7 6 6 7 3 5 10 6 3 5 6 4 2 1 3 4 2 5 8 6 5 10 7 1 0 1 5 7 4 3 3 2 2 3 4 4 2 2 4 5 4 5 9 14 17 17 18 18 19 22 24 24 22 22 23 25
2 1 2 1 1 3 3 1 1 3 1 3 3 3 1 1 2 2 4 7 9 6 3 1 1 1 3 3 6 9 5 5 8 5 4 5 1 3 9 7 4 6 6 5 3 2 1 3 3 3 3 6 5 7 8 6 1 3 5 7 1 2 2 3 2 2 3 4 2 3 3 4 5 7 14 20 20 19 19 17 17 21 24 23 22 23 23 24
2 1 0 1 2 3 2 3 3 3 2 2 2 1 1 2 3 4 6 6 5 4 3 2 2 2 3 3 6 6 2 5 9 3 2 4 2 1 7 7 7 7 5 3 3 2 0 1 4 3 1 4 6 6 8 9 7 5 7 7 4 1 0 2 2 1 1 3 2 2 3 3 2 4 11 19 20 19 18 16 17 21 24 22 23 24 24 24
0 1 1 1 2 2 4 5 3 1 1 1 1 2 2 3 3 6 9 8 7 8 7 4 3 1 2 3 5 4 3 6 6 2 1 5 3 1 6 8 10 9 5 4 4 3 1 1 3 4 4 6 5 3 5 10 11 9 7 7 7 5 3 4 5 2 1 1 2 2 3 2 1 2 5 14 17 18 20 18 17 20 23 22 22 24 25 27
0 1 1 1 1 4 5 3 1 1 1 1 2 3 3 3 3 5 7 6 8 9 7 5 5 3 1 2 3 3 3 4 3 2 2 5 4 3 9 16 17 14 8 4 4 3 1 2 3 3 4 4 2 1 2 10 10 7 6 7 6 4 5 7 6 3 3 1 1 1 2 1 2 4 4 12 15 18 22 22 18 19 21 20 21 25 29 30
1 2 1 1 2 5 4 1 1 2 2 2 3 4 5 3 3 3 4 4 5 6 5 4 4 3 2 1 2 4 4 2 2 2 3 5 5 4 13 24 23 16 8 3 3 4 2 1 3 3 2 1 0 2 1 5 8 6 5 6 7 5 3 2 1 3 5 4 3 2 3 2 2 4 5 14 16 16 19 21 21 20 19 20 25 29 31 30
3 3 3 3 4 5 3 1 1 2 2 3 4 4 5 5 5 5 5 4 4 3 2 2 2 2 1 0 3 4 3 1 1 1 2 4 3 3 14 26 23 13 7 5 6 6 3 1 2 5 5 4 4 3 3 4 6 5 3 4 7 7 5 3 2 2 4 4 5 5 5 2 3 1 7 15 15 15 17 19 22 23 20 21 28 31 30 31
4 2 3 3 4 4 2 1 2 3 4 4 5 4 4 4 7 10 9 6 6 5 3 2 2 1 0 1 3 3 2 1 1 0 1 2 1 2 12 22 18 11 10 10 11 8 3 1 2 5 7 7 6 5 4 4 4 2 2 5 7 8 9 5 2 3 4 2 5 6 4 3 2 3 11 15 15 17 19 19 23 25 23 25 32 33 32 32
3 1 2 3 4 4 3 3 3 3 3 4 4 3 2 3 5 9 10 7 7 7 4 3 2 1 1 2 4 3 2 3 2 1 2 3 2 1 9 17 15 12 13 14 15 9 2 1 2 3 4 4 3 2 1 3 6 5 4 7 8 9 10 7 4 5 4 4 4 4 1 3 4 8 13 16 16 17 19 22 25 26 28 31 35 35 34 35
2 0 1 2 3 3 4 4 4 4 3 2 1 2 3 4 5 3 6 5 4 5 3 1 1 2 1 3 5 3 1 3 3 4 3 3 3 2 6 12 11 13 13 14 15 9 2 2 3 2 2 1 1 2 1 2 7 8 8 9 10 9 10 9 7 5 6 5 5 4 3 4 8 13 17 18 18 16 18 25 27 27 32 37 37 36 35 35
2 2 2 2 2 1 2 3 4 6 6 3 1 3 4 5 6 5 2 3 4 2 3 1 5 6 2 2 4 3 2 2 2 3 3 2 4 4 4 3 4 8 10 9 10 5 1 3 3 2 3 2 1 1 1 1 2 4 5 8 11 11 12 13 10 7 9 7 4 6 10 8 7 14 19 20 20 20 21 26 26 26 32 37 37 34 33 34
2 3 3 3 3 4 6 8 7 8 7 3 2 2 3 5 8 6 2 3 4 2 0 2 5 7 4 0 3 3 3 2 2 3 2 2 3 3 3 2 1 4 6 6 5 1 1 4 3 3 4 2 3 1 2 3 2 2 3 4 6 10 12 12 7 4 6 2 1 7 13 9 3 9 17 19 21 23 23 25 25 28 32 33 33 31 30 32
4 5 5 5 5 6 8 7 6 6 5 3 2 2 2 4 7 7 4 2 1 3 3 4 6 7 4 2 5 5 1 2 3 2 4 4 3 2 2 2 3 3 4 5 4 0 2 3 2 4 4 1 2 2 1 3 3 3 2 0 1 5 5 3 2 3 4 2 2 6 9 5 1 6 15 20 22 23 23 24 27 29 31 31 30 30 29 32
8 9 8 6 5 5 5 4 3 3 3 1 2 2 2 3 5 6 5 3 1 1 2 4 5 4 3 5 9 7 1 2 1 1 4 4 2 2 2 2 6 7 4 4 4 1 1 2 2 3 5 2 1 2 2 3 2 2 3 2 4 5 3 1 2 4 5 6 7 7 5 4 4 10 17 21 23 24 24 26 28 29 32 33 31 29 29 33
11 10 8 5 3 3 3 3 2 2 2 1 2 4 4 5 5 3 3 3 2 3 2 4 2 1 3 6 8 8 5 2 2 4 5 4 2 3 4 5 9 9 6 5 3 1 3 4 2 3 5 2 1 1 2 3 2 3 3 3 5 4 2 2 1 3 5 8 8 6 3 3 8 14 17 19 22 25 28 32 32 31 33 34 33 32 33 37
Wind_Direction
282 285 288 291 290 289 290 293 296 299 306 314 320 319 318 315 313 317 320 321 321 319 314 312 312 310 302 291 283 275 270 268 261 253 247 239 230 225 218 207 210 212 210 206 202 196 192 190 187 188 183 179 182 175 171 167 165 163 158 201 204 193 186 180 190 192 266 339 309 319 335 312 218 126 129 133 132 128 135 136 150 160 156 165 163 169 164 151
276 279 281 285 289 290 289 289 290 294 298 305 312 315 317 313 313 316 317 319 319 320 319 316 313 308 304 294 284 279 277 276 268 255 244 242 238 226 219 214 207 205 205 205 203 197 194 194 188 185 178 172 173 174 174 170 170 170 137 205 210 181 182 204 205 216 249 303 323 318 326 304 179 149 147 146 141 138 129 121 138 123 139 161 155 165 163 149
275 274 275 278 283 287 288 286 285 288 292 297 301 306 311 312 314 312 313 317 314 317 322 320 314 307 302 294 286 285 287 285 277 260 247 247 241 224 216 215 210 202 203 203 202 200 197 198 193 182 173 168 168 175 178 176 179 184 181 216 220 191 228 247 238 251 258 288 313 314 326 297 171 155 158 154 151 159 152 141 147 146 151 156 153 162 160 151
285 277 273 272 276 280 283 285 284 283 286 289 294 300 304 311 313 309 309 311 312 317 321 320 314 308 303 298 290 291 305 304 282 257 248 249 237 225 217 212 209 205 204 200 198 201 188 189 191 177 170 161 164 174 178 182 179 174 192 216 173 166 228 251 253 266 273 286 285 304 328 201 164 154 156 150 152 181 180 161 163 166 162 155 155 161 159 155
303 292 282 273 271 273 276 280 282 282 282 281 285 291 297 305 308 308 306 307 313 313 314 317 314 311 305 298 292 287 319 320 260 231 235 233 225 224 218 210 206 203 202 197 193 193 181 179 181 172 169 154 158 171 182 185 174 161 193 216 182 169 229 265 274 285 289 294 270 282 317 178 156 148 157 149 144 196 193 210 197 162 161 155 156 159 158 156
312 307 298 286 275 270 270 273 278 280 279 278 280 281 287 295 300 305 305 306 309 305 312 317 315 316 304 296 292 236 202 245 180 185 197 196 205 218 216 210 203 200 198 196 188 183 176 173 175 171 165 145 165 175 172 180 183 197 194 213 223 213 235 271 282 288 286 284 272 265 294 181 149 131 146 108 20 17 212 217 171 150 157 154 156 158 157 158
312 310 308 301 287 275 269 266 270 274 277 277 277 277 278 284 291 298 303 304 301 304 315 313 314 316 303 298 291 250 230 234 187 172 173 168 185 210 215 208 201 199 196 194 187 179 173 172 176 172 161 142 178 185 160 167 183 213 205 206 242 235 241 267 272 278 282 277 277 266 236 197 174 136 127 75 40 67 131 184 157 143 153 153 155 158 157 161
308 308 309 308 299 285 274 265 264 267 271 274 274 274 274 277 283 289 300 304 300 304 308 304 312 310 304 308 300 284 244 224 196 179 178 166 167 207 215 204 199 198 196 197 190 180 174 175 178 171 166 153 174 182 160 160 173 200 212 218 247 251 251 271 276 277 284 279 283 246 190 190 159 130 106 75 87 108 123 144 142 142 153 153 155 158 157 161
303 302 304 306 304 296 284 271 263 262 265 270 273 272 272 273 277 282 292 301 303 301 303 302 305 302 303 309 305 289 247 224 213 210 215 239 267 315 229 201 197 198 197 197 191 186 180 180 181 174 174 162 168 178 172 183 191 188 207 220 238 260 267 279 280 275 280 239 141 102 96 111 129 124 92 81 115 122 126 131 137 143 150 153 155 160 160 164
299 299 298 299 301 298 292 281 268 261 260 264 269 270 270 269 270 278 285 297 304 301 305 306 304 306 301 302 308 270 243 232 229 231 240 257 266 287 275 204 194 196 198 194 190 189 186 186 183 174 172 160 162 169 168 186 177 177 202 234 248 266 279 278 268 256 222 161 160 116 95 108 125 132 105 120 131 129 128 128 138 143 145 150 154 161 167 170
297 295 293 294 296 295 292 287 276 265 258 260 265 267 267 266 266 271 277 290 302 303 302 302 301 297 291 291 271 236 233 231 232 234 241 253 259 270 275 212 193 195 197 194 190 189 190 191 181 170 168 163 160 153 163 184 163 174 194 241 254 274 274 256 254 247 218 171 157 124 105 79 76 110 120 133 144 137 127 124 131 137 139 148 156 162 170 176
296 292 289 289 292 293 290 286 282 271 260 257 260 264 266 266 265 266 271 282 296 302 296 295 296 285 289 279 250 234 228 220 219 223 228 239 245 255 262 212 192 194 198 196 190 185 186 188 182 181 166 157 158 149 180 182 169 173 161 250 258 311 260 234 240 237 213 162 149 130 117 79 51 95 115 130 144 138 126 121 124 131 138 149 159 165 170 179
299 294 288 285 287 290 290 285 283 278 264 257 257 261 266 267 265 261 265 278 291 298 292 289 287 279 290 272 252 246 241 230 230 217 204 211 219 237 248 203 189 191 198 202 192 179 178 180 185 190 162 154 158 130 154 166 181 171 130 286 262 285 237 209 205 196 159 156 158 149 150 127 61 99 127 134 143 138 124 119 122 129 141 152 162 167 173 183
300 296 288 284 284 285 287 286 285 283 271 260 255 258 263 265 263 257 259 274 287 295 292 289 281 272 273 270 267 272 258 236 235 221 182 185 188 192 219 188 183 187 194 203 194 178 173 171 177 182 160 154 152 126 118 93 185 165 141 218 227 224 199 91 205 171 131 158 170 235 219 148 132 135 149 148 149 146 131 125 129 135 145 153 160 166 170 179
299 296 287 281 281 281 283 284 286 285 277 263 255 256 260 264 262 255 253 267 283 290 291 292 286 277 271 275 282 286 252 231 230 218 190 197 181 162 185 179 175 180 185 190 189 180 172 162 162 163 151 147 143 141 135 78 88 117 184 193 175 213 191 42 8 162 124 152 159 312 154 137 155 147 141 154 156 153 142 135 136 137 143 146 148 150 150 156
299 297 290 280 276 278 280 282 286 287 280 267 258 255 257 262 262 255 249 259 277 286 290 289 287 291 280 280 285 274 236 222 222 221 214 211 186 157 166 174 171 171 174 173 173 178 177 169 159 143 134 151 150 151 153 158 163 179 211 197 160 192 207 58 75 13 29 143 84 340 143 133 160 154 144 153 160 154 143 140 140 138 142 142 137 133 135 139
301 299 294 282 276 278 279 281 286 287 281 269 262 256 256 260 258 249 242 252 271 282 289 276 276 287 263 268 281 259 228 218 220 224 216 203 187 162 158 168 171 171 170 166 161 165 168 168 168 156 120 137 149 163 177 196 192 170 196 205 151 178 214 164 121 22 16 138 112 57 121 126 143 148 142 142 157 148 133 127 128 131 136 135 129 127 133 140
305 301 295 286 281 281 281 282 283 283 280 270 263 256 254 256 251 242 233 246 260 274 285 239 194 294 261 258 267 255 237 222 217 215 207 196 187 170 163 168 168 167 159 155 155 154 156 152 160 159 128 161 177 186 193 198 178 163 175 187 163 174 220 169 111 9 8 116 130 122 111 119 135 140 130 121 141 136 117 104 104 116 123 120 124 128 135 142
308 302 296 289 284 284 282 282 280 279 276 267 261 255 253 253 249 244 236 233 223 210 268 206 188 207 287 299 262 252 256 242 212 208 199 191 184 174 178 174 160 157 149 147 161 158 154 132 148 177 183 184 181 191 198 157 155 165 172 181 159 158 170 62 73 359 24 102 111 133 131 134 139 135 118 107 117 121 123 117 117 144 138 128 137 136 139 140
309 302 296 291 286 284 280 279 278 276 271 262 255 249 247 239 237 244 228 222 224 229 243 228 214 228 262 312 282 274 282 235 211 205 194 187 183 174 170 163 153 153 151 150 156 161 162 160 182 190 179 171 168 178 169 113 145 146 144 155 153 137 95 84 67 350 284 99 70 114 131 130 130 120 101 100 110 119 131 110 91 108 119 132 142 134 133 132
309 301 295 290 286 282 277 276 275 269 263 253 244 239 232 216 214 227 202 223 242 242 244 246 244 247 258 269 273 298 317 285 235 196 189 186 179 170 161 157 151 155 156 132 121 141 174 189 192 174 156 155 156 160 133 111 136 133 147 153 164 139 93 78 14 21 173 109 95 129 124 103 95 96 79 81 99 120 130 93 87 112 114 106 116 114 118 121
310 302 293 286 281 279 274 272 268 262 254 244 237 235 231 221 226 237 224 247 260 254 248 246 247 253 257 257 261 279 300 295 257 192 180 179 179 176 160 158 158 147 140 133 123 140 185 203 177 146 149 141 134 158 145 135 149 126 145 151 165 148 110 93 27 48 112 100 126 136 116 86 76 79 70 69 82 105 112 102 119 130 120 112 109 100 106 115
311 305 295 286 279 274 269 267 262 256 249 241 237 234 232 233 232 234 259 286 282 264 250 242 241 247 253 253 255 263 260 260 265 201 180 177 179 180 164 155 152 140 149 164 158 159 184 196 162 145 148 138 132 171 155 147 163 137 154 162 163 155 127 102 65 72 82 103 139 131 103 82 77 73 64 68 89 102 104 114 128 131 123 125 134 137 142 144
314 307 298 290 283 275 267 263 258 252 247 242 241 235 230 230 224 218 247 274 284 263 250 247 243 241 245 247 246 245 237 238 250 201 181 178 175 174 165 148 139 146 160 165 157 154 143 140 145 146 153 151 151 172 167 174 191 189 191 175 144 119 85 100 106 100 86 102 134 124 102 77 85 120 104 82 104 112 115 122 127 132 132 134 148 164 169 177
318 309 301 292 284 276 268 262 255 249 244 239 237 232 227 224 212 199 208 268 270 254 251 243 236 240 239 235 228 226 230 241 239 208 181 182 175 161 152 152 150 157 155 142 150 158 108 133 147 146 158 156 152 171 181 182 186 199 207 190 164 131 112 122 134 122 95 119 148 131 117 126 115 151 154 118 115 123 134 134 132 139 145 146 158 169 172 179
325 315 305 294 280 269 262 260 254 244 235 230 229 219 218 218 203 186 172 294 270 204 197 201 207 231 223 211 213 211 233 260 236 208 182 184 178 160 146 157 149 150 151 138 149 167 112 153 158 151 155 155 156 176 188 183 176 192 194 167 150 131 127 141 158 151 115 139 160 213 244 141 157 169 165 147 129 135 152 152 149 147 149 154 161 167 169 173
333 328 316 302 281 263 254 257 247 226 215 218 220 202 196 202 187 166 161 291 259 171 143 170 187 201 194 191 192 189 218 210 198 199 189 179 177 170 163 164 133 142 156 141 161 178 128 153 170 157 153 158 168 173 183 188 177 166 171 153 145 147 147 155 154 122 114 117 134 254 302 136 172 181 173 168 147 148 167 171 168 158 154 156 154 154 160 168
336 338 327 310 286 260 247 257 238 209 206 207 199 185 180 186 171 150 168 260 180 140 145 172 176 172 174 182 180 183 214 151 161 190 183 173 174 175 174 170 142 142 167 173 166 143 130 161 171 159 158 172 173 153 158 179 180 153 159 146 140 144 141 145 121 100 125 137 150 213 243 152 167 170 170 178 173 167 174 178 178 170 166 157 142 143 156 166
336 332 325 313 281 244 240 249 221 202 209 180 161 162 168 168 158 142 217 235 136 119 140 157 159 160 152 158 176 193 217 188 175 170 168 173 175 167 164 159 140 131 150 189 159 117 161 177 172 164 169 174 159 141 163 179 183 137 141 114 85 78 82 96 105 106 132 173 171 187 210 184 159 171 174 185 196 189 179 178 175 170 174 168 147 148 156 158
330 328 334 345 171 201 230 217 185 180 192 172 156 152 155 152 151 152 185 223 176 105 108 147 155 157 151 147 176 201 216 293 176 154 159 173 167 142 132 147 142 128 122 160 152 113 111 167 171 174 172 155 145 150 170 176 143 133 133 114 91 71 75 74 52 90 163 216 174 182 200 212 184 187 188 195 205 192 181 174 168 162 168 173 161 153 154 153
333 340 6 38 100 162 208 144 136 128 183 175 157 147 145 143 186 196 156 198 334 99 103 152 155 146 154 157 168 189 210 274 173 155 155 163 162 145 135 147 146 131 139 167 164 109 88 145 169 182 157 143 132 142 154 123 144 145 137 134 124 97 98 97 75 111 212 198 131 182 191 208 216 195 199 209 207 186 185 177 167 162 161 166 165 160 159 155
335 348 17 20 35 51 52 118 66 14 181 172 152 150 146 146 226 212 194 327 138 171 166 158 153 153 165 167 147 163 188 227 187 166 155 153 163 158 154 165 160 149 162 171 163 129 116 146 188 158 163 160 145 143 147 128 177 176 150 154 158 147 159 183 172 189 215 163 48 185 178 195 235 179 205 207 198 193 195 186 170 162 159 161 162 161 159 154
326 330 346 331 314 345 338 83 32 99 179 166 153 157 158 201 191 229 284 41 22 315 6 142 157 161 166 165 153 164 177 177 181 167 150 147 155 157 145 117 136 141 152 157 156 153 148 179 200 156 164 174 167 166 171 173 187 187 167 169 176 164 170 185 168 149 202 149 53 149 173 196 221 79 224 206 206 209 192 185 176 164 158 159 158 158 157 154
315 317 319 294 281 308 311 315 24 164 195 187 151 159 224 199 193 336 56 22 320 317 359 119 155 156 166 172 157 166 175 175 176 166 154 158 165 170 165 142 146 93 118 148 164 167 168 180 179 167 153 175 181 181 153 139 165 182 153 170 181 173 177 179 169 171 165 127 77 135 175 204 167 127 277 238 265 244 179 174 173 164 158 158 157 157 157 156
315 311 306 299 304 293 283 18 103 111 227 188 150 175 223 205 300 29 74 353 316 328 347 40 147 149 173 184 153 175 201 192 172 170 164 167 171 171 160 163 193 130 144 163 165 163 163 126 164 165 148 171 176 156 114 133 154 177 84 171 196 183 150 109 119 135 124 124 128 164 191 255 155 332 297 229 211 192 168 164 165 160 159 162 161 159 158 157
322 311 307 311 326 47 348 156 117 59 180 176 174 217 234 262 313 38 58 345 322 329 334 150 147 151 173 158 161 188 213 159 164 172 163 164 166 163 150 149 185 176 162 158 132 155 148 121 152 131 155 182 170 150 163 172 158 142 182 190 174 105 112 119 113 53 91 192 176 159 149 117 207 233 212 172 163 167 166 165 165 162 162 164 163 161 160 159
325 309 318 318 273 56 28 143 145 35 166 184 216 242 233 293 253 63 7 335 321 315 311 170 159 172 176 161 165 184 188 144 165 174 160 162 166 162 156 155 176 173 164 148 116 209 157 123 152 171 174 195 170 157 173 208 148 150 186 168 119 77 76 131 177 130 185 207 175 142 174 179 193 172 162 167 164 166 170 169 167 163 163 164 163 163 161 159
320 278 327 326 249 4 23 101 187 329 200 202 243 259 257 314 189 178 332 325 320 312 301 186 176 170 174 165 161 178 180 160 167 167 160 171 182 162 156 157 187 177 169 162 131 215 185 128 152 207 183 164 160 165 168 220 337 153 166 155 147 204 189 169 186 172 186 197 161 150 180 199 208 169 170 180 177 172 169 167 166 165 165 163 162 162 160 159
325 259 323 355 20 0 15 52 258 291 267 205 235 260 302 312 263 298 322 320 314 301 278 252 240 164 177 168 152 167 179 161 158 151 160 178 208 173 164 156 179 185 173 168 155 166 218 143 155 219 188 140 155 189 185 171 88 44 147 166 202 301 188 175 173 179 195 193 164 153 172 218 220 191 185 186 181 174 168 166 167 167 166 164 161 161 160 160
307 220 2 104 43 17 343 315 299 275 237 214 247 264 309 314 291 298 306 305 302 283 264 296 333 139 161 158 150 159 149 142 152 146 158 165 117 184 187 164 157 171 163 151 162 153 153 195 161 135 111 165 176 202 193 167 152 154 168 177 181 117 125 192 159 83 200 184 166 175 198 210 209 201 194 186 179 174 170 167 167 166 166 163 162 161 159 159
257 153 44 50 56 11 325 307 292 252 208 226 259 246 280 311 299 295 292 272 252 254 254 268 291 269 143 140 146 148 123 135 147 120 130 165 149 197 208 179 155 153 144 143 174 179 163 191 155 143 176 190 182 187 184 173 170 173 177 182 183 165 155 190 195 153 80 166 160 185 223 190 70 326 210 185 180 177 171 164 160 163 164 162 161 161 160 160
153 125 66 73 42 335 319 303 241 251 242 218 244 246 265 294 273 277 285 256 235 242 240 239 250 247 196 135 135 129 121 126 141 131 142 174 178 174 186 176 160 152 152 159 178 180 151 134 138 156 186 190 173 15 199 187 178 175 191 187 178 176 181 200 205 159 132 142 93 129 245 165 36 331 239 188 176 167 166 164 155 155 160 160 159 159 159 160
53 57 71 66 353 336 329 299 215 267 251 245 276 255 238 250 254 258 274 252 235 233 220 217 227 216 198 159 139 136 130 113 134 138 136 166 188 196 177 170 161 155 159 161 164 164 154 139 143 140 121 119 104 24 38 183 176 188 212 184 173 188 189 203 197 143 175 187 141 173 231 166 35 332 205 179 161 146 156 161 153 151 155 156 156 157 158 158
11 7 17 3 336 338 342 285 280 306 293 283 286 262 235 235 234 234 247 241 238 256 244 225 223 208 215 111 127 133 138 138 146 124 113 155 183 184 170 168 163 160 172 181 173 171 177 207 160 151 144 152 171 160 146 177 191 201 196 177 185 175 130 98 91 156 209 196 155 196 218 141 39 356 169 165 152 145 157 160 153 152 154 153 155 157 159 159
354 347 0 342 314 314 308 269 290 301 307 305 292 271 253 248 236 233 241 246 245 257 277 276 253 200 102 94 107 99 82 83 127 196 103 135 120 114 164 171 169 165 180 184 170 162 169 174 162 168 166 166 179 185 175 167 182 205 173 177 187 171 157 157 152 188 217 181 165 207 208 113 68 159 162 161 158 159 164 162 156 156 157 158 159 160 162 162
0 355 346 325 300 295 273 267 280 276 295 305 289 271 254 267 264 242 234 239 243 240 251 292 273 140 81 102 107 92 50 43 72 160 151 140 120 84 166 173 174 172 175 174 161 146 114 135 150 167 170 162 165 171 148 158 172 183 177 174 182 182 178 177 183 196 184 147 180 214 170 141 175 176 170 168 168 167 166 165 162 159 159 161 162 164 166 167
0 3 347 322 299 289 264 251 235 230 263 288 300 321 280 271 307 281 215 218 248 234 229 309 23 59 88 131 113 103 60 41 92 151 165 147 100 66 153 167 181 180 169 163 158 144 93 183 168 139 142 131 111 127 119 193 184 180 173 175 184 185 181 190 204 179 140 155 205 200 165 186 186 182 182 177 174 172 169 170 167 160 160 163 165 168 169 169
350 290 293 297 289 265 265 269 252 248 259 245 234 312 294 294 341 0 231 273 316 265 209 22 26 26 21 152 120 114 127 73 103 160 176 144 113 97 118 141 194 180 161 159 162 148 120 184 182 162 145 116 51 159 179 162 167 176 179 185 187 181 184 198 204 174 161 192 221 168 177 201 191 184 188 184 178 175 170 169 165 157 159 164 166 167 168 168
303 289 277 264 253 255 270 283 287 284 281 257 237 284 301 320 348 3 316 301 335 328 7 46 14 9 358 228 129 128 152 148 161 195 186 139 124 119 118 110 186 175 154 155 164 158 187 177 169 174 160 92 41 331 197 153 145 176 188 199 198 191 193 198 195 163 161 195 340 160 180 204 202 180 186 182 175 170 163 160 158 158 162 164 166 166 165 167
304 308 301 279 264 266 275 281 289 301 305 284 261 277 279 312 344 352 319 269 348 344 18 49 12 2 4 44 90 98 161 172 146 178 174 150 141 154 153 145 148 144 145 157 160 215 219 181 146 162 175 123 46 43 119 153 168 185 171 130 193 191 198 195 139 128 133 89 80 153 177 216 256 154 168 167 163 161 160 160 161 164 165 165 166 166 165 167
319 320 318 306 282 276 286 294 289 301 317 299 289 319 315 313 340 343 304 264 254 351 38 45 8 350 4 41 61 63 342 213 119 162 178 168 160 166 191 186 159 149 142 157 160 151 173 150 112 163 188 200 32 59 127 129 140 212 226 201 170 170 188 171 139 179 175 140 125 136 177 228 185 154 162 166 165 164 166 168 168 168 169 169 168 166 166 169
330 339 346 336 301 289 306 318 305 307 327 292 284 314 311 301 315 329 293 278 194 148 63 18 355 344 12 33 42 18 328 271 112 107 127 130 113 113 116 138 152 153 150 150 146 124 146 142 128 177 191 181 50 63 145 147 190 241 251 198 168 158 172 162 153 223 192 152 138 156 193 168 145 153 163 170 174 176 178 177 174 171 171 171 170 168 171 174
Height
1503 1503 1503 1503 1503 1502 1502 1502 1501 1501 1500 1499 1499 1498 1498 1497 1496 1496 1495 1494 1493 1492 1492 1491 1490 1489 1488 1488 1487 1487 1487 1487 1488 1488 1487 1489 1492 1494 1495 1496 1497 1497 1498 1499 1500 1501 1502 1504 1505 1507 1508 1509 1510 1511 1512 1513 1514 1514 1516 1519 1520 1520 1518 1515 1515 1514 1512 1511 1510 1510 1510 1510 1509 1510 1510 1510 1512 1512 1514 1516 1517 1519 1520 1521 1522 1524 1526 1529
1501 1501 1501 1501 1501 1501 1501 1500 1500 1500 1499 1498 1498 1497 1497 1496 1495 1495 1494 1494 1493 1492 1491 1490 1489 1488 1488 1487 1486 1486 1486 1486 1486 1485 1486 1488 1490 1492 1493 1495 1495 1496 1497 1498 1499 1500 1502 1503 1504 1506 1507 1508 1509 1510 1511 1512 1512 1513 1516 1518 1516 1516 1514 1512 1512 1512 1512 1511 1509 1510 1509 1509 1508 1509 1510 1510 1512 1512 1514 1517 1518 1520 1520 1522 1523 1525 1527 1530
1499 1499 1499 1499 1499 1499 1499 1499 1498 1498 1498 1497 1497 1496 1496 1495 1495 1494 1493 1493 1492 1491 1490 1489 1489 1487 1487 1485 1485 1485 1485 1485 1484 1483 1485 1485 1487 1490 1491 1492 1494 1495 1496 1497 1499 1500 1501 1502 1503 1504 1506 1507 1508 1509 1510 1511 1511 1512 1514 1515 1513 1513 1512 1511 1512 1511 1511 1511 1510 1510 1509 1508 1508 1509 1510 1510 1512 1512 1512 1514 1517 1517 1519 1521 1523 1525 1528 1530
1497 1497 1497 1497 1497 1497 1497 1497 1497 1496 1496 1496 1496 1495 1495 1494 1494 1493 1493 1492 1491 1490 1489 1489 1488 1487 1486 1484 1485 1485 1485 1484 1482 1481 1482 1483 1485 1487 1488 1489 1491 1493 1495 1496 1498 1499 1500 1501 1503 1504 1505 1506 1508 1509 1509 1509 1510 1511 1511 1512 1511 1512 1512 1510 1510 1510 1510 1511 1511 1510 1509 1508 1508 1509 1510 1510 1513 1514 1512 1513 1514 1514 1516 1518 1522 1525 1528 1531
1496 1495 1495 1495 1495 1495 1495 1495 1495 1494 1494 1494 1494 1494 1494 1493 1493 1492 1492 1491 1490 1489 1488 1488 1487 1486 1485 1484 1484 1484 1486 1483 1478 1478 1479 1481 1483 1484 1485 1487 1489 1491 1493 1495 1497 1498 1499 1500 1502 1503 1504 1505 1507 1507 1508 1508 1509 1510 1510 1510 1510 1511 1511 1508 1509 1510 1510 1510 1510 1510 1509 1508 1509 1510 1511 1511 1512 1513 1513 1514 1514 1515 1517 1518 1520 1524 1527 1531
1494 1493 1493 1492 1492 1492 1493 1493 1493 1493 1493 1493 1493 1493 1493 1492 1492 1491 1490 1490 1489 1488 1488 1487 1486 1485 1484 1483 1483 1484 1485 1479 1475 1477 1477 1478 1480 1481 1482 1484 1487 1489 1491 1494 1495 1497 1498 1499 1501 1502 1502 1504 1505 1505 1506 1508 1508 1508 1509 1509 1509 1509 1509 1508 1509 1509 1509 1509 1509 1509 1509 1509 1509 1510 1512 1512 1513 1513 1513 1514 1515 1517 1520 1521 1522 1524 1528 1531
1493 1492 1491 1491 1490 1490 1490 1491 1491 1491 1491 1491 1491 1491 1491 1491 1490 1490 1489 1489 1488 1487 1487 1486 1486 1485 1483 1482 1482 1483 1483 1477 1475 1476 1476 1477 1479 1479 1480 1482 1485 1487 1489 1492 1493 1495 1497 1498 1499 1500 1501 1503 1504 1504 1505 1506 1507 1507 1508 1508 1508 1508 1508 1507 1508 1508 1508 1508 1508 1508 1508 1508 1509 1510 1513 1514 1514 1515 1514 1514 1516 1519 1521 1523 1525 1526 1529 1532
1492 1491 1490 1489 1488 1488 1488 1488 1488 1489 1489 1489 1489 1489 1489 1489 1489 1488 1488 1488 1487 1487 1486 1485 1485 1484 1483 1482 1482 1483 1479 1475 1475 1475 1475 1476 1477 1478 1479 1480 1483 1485 1487 1489 1491 1494 1495 1497 1498 1499 1500 1501 1502 1503 1504 1506 1507 1507 1507 1507 1507 1506 1506 1506 1507 1506 1506 1507 1507 1507 1507 1507 1508 1510 1513 1515 1516 1515 1515 1514 1517 1521 1523 1525 1526 1528 1530 1533
1490 1489 1488 1488 1487 1486 1486 1486 1486 1486 1487 1487 1487 1487 1488 1488 1488 1487 1487 1486 1486 1486 1485 1485 1484 1483 1483 1482 1483 1481 1474 1472 1475 1475 1475 1475 1476 1477 1478 1479 1481 1483 1485 1488 1491 1493 1494 1495 1497 1498 1499 1500 1501 1502 1503 1505 1506 1505 1506 1506 1505 1505 1505 1505 1505 1504 1505 1506 1506 1506 1507 1508 1508 1510 1514 1517 1516 1516 1516 1516 1518 1521 1524 1526 1528 1530 1532 1534
1488 1487 1487 1486 1485 1485 1484 1484 1484 1484 1485 1485 1485 1486 1486 1486 1486 1486 1485 1485 1485 1485 1484 1484 1483 1483 1482 1481 1483 1480 1470 1471 1474 1473 1474 1474 1475 1476 1476 1478 1479 1482 1484 1486 1489 1491 1493 1494 1496 1497 1498 1499 1500 1501 1502 1503 1503 1504 1504 1505 1504 1504 1504 1504 1503 1503 1504 1505 1505 1506 1508 1509 1509 1510 1515 1517 1516 1517 1517 1517 1520 1522 1525 1527 1530 1532 1534 1536
1486 1486 1485 1485 1484 1483 1482 1482 1482 1482 1482 1483 1483 1484 1484 1484 1484 1484 1484 1484 1484 1484 1483 1483 1482 1482 1481 1481 1483 1476 1468 1470 1472 1472 1473 1473 1474 1475 1475 1476 1478 1480 1483 1485 1488 1490 1493 1494 1496 1497 1497 1498 1500 1501 1502 1502 1502 1503 1503 1503 1503 1503 1502 1502 1502 1502 1503 1504 1505 1505 1508 1510 1510 1511 1515 1516 1517 1518 1518 1518 1521 1523 1526 1529 1532 1534 1536 1537
1484 1484 1483 1483 1482 1481 1481 1480 1480 1480 1480 1481 1481 1482 1482 1482 1483 1483 1483 1483 1483 1482 1482 1482 1481 1481 1481 1480 1476 1470 1468 1470 1470 1470 1472 1472 1474 1474 1474 1475 1477 1479 1482 1484 1487 1490 1492 1494 1496 1496 1496 1497 1499 1501 1501 1501 1502 1502 1503 1502 1502 1501 1500 1500 1500 1500 1500 1503 1504 1504 1508 1513 1514 1515 1517 1517 1518 1519 1519 1520 1522 1524 1527 1530 1533 1535 1537 1538
1482 1482 1481 1480 1480 1480 1479 1478 1478 1478 1478 1479 1479 1480 1480 1480 1481 1481 1481 1481 1481 1481 1480 1480 1480 1480 1480 1475 1466 1465 1468 1469 1469 1469 1471 1472 1473 1473 1473 1474 1476 1479 1482 1484 1487 1489 1492 1493 1495 1496 1496 1497 1498 1499 1499 1500 1501 1501 1502 1502 1502 1503 1500 1498 1499 1499 1500 1503 1503 1503 1512 1519 1518 1518 1517 1518 1519 1519 1520 1521 1523 1525 1527 1530 1533 1536 1538 1539
1480 1479 1479 1478 1478 1478 1477 1477 1476 1476 1476 1477 1477 1478 1478 1478 1479 1479 1480 1480 1480 1480 1479 1479 1479 1479 1478 1469 1461 1464 1466 1466 1467 1468 1470 1471 1472 1472 1473 1473 1475 1479 1482 1485 1488 1489 1491 1492 1494 1495 1496 1497 1497 1498 1499 1501 1501 1500 1502 1503 1505 1506 1500 1497 1498 1499 1500 1503 1503 1503 1511 1519 1519 1519 1518 1518 1520 1519 1519 1521 1523 1526 1528 1529 1532 1535 1538 1539
1477 1477 1476 1476 1476 1476 1475 1475 1475 1474 1475 1475 1475 1476 1476 1477 1478 1478 1478 1478 1478 1478 1477 1478 1477 1477 1477 1466 1460 1463 1463 1464 1465 1467 1470 1470 1471 1472 1472 1473 1475 1478 1481 1485 1487 1489 1491 1492 1493 1495 1496 1497 1497 1498 1499 1501 1501 1501 1503 1505 1507 1506 1500 1498 1499 1499 1500 1503 1504 1504 1511 1518 1518 1519 1519 1519 1520 1520 1520 1521 1524 1526 1528 1530 1531 1534 1537 1540
1475 1474 1474 1473 1473 1473 1473 1473 1473 1473 1473 1473 1473 1474 1475 1475 1476 1476 1476 1476 1477 1476 1477 1477 1476 1477 1476 1465 1460 1461 1461 1462 1464 1465 1468 1468 1470 1471 1472 1474 1475 1478 1481 1484 1487 1488 1490 1492 1493 1495 1495 1496 1497 1498 1500 1502 1503 1502 1502 1504 1507 1506 1501 1500 1500 1501 1499 1501 1505 1505 1511 1519 1517 1518 1520 1520 1521 1521 1522 1524 1525 1527 1529 1530 1531 1533 1536 1540
1473 1472 1471 1471 1471 1471 1471 1471 1471 1471 1471 1471 1472 1472 1473 1474 1474 1475 1475 1475 1475 1475 1476 1475 1475 1477 1472 1461 1459 1460 1460 1461 1461 1463 1465 1467 1470 1470 1472 1473 1475 1478 1481 1484 1486 1488 1490 1491 1493 1494 1495 1496 1497 1497 1502 1506 1504 1503 1503 1503 1506 1507 1504 1501 1500 1502 1500 1501 1506 1507 1511 1516 1515 1517 1520 1520 1521 1522 1524 1526 1527 1529 1531 1531 1532 1534 1537 1540
1470 1469 1469 1469 1469 1469 1469 1469 1469 1469 1469 1470 1470 1471 1472 1472 1473 1473 1472 1473 1473 1475 1475 1474 1476 1475 1464 1457 1459 1459 1459 1459 1459 1461 1463 1466 1468 1470 1472 1473 1474 1477 1480 1483 1486 1487 1489 1491 1492 1494 1495 1497 1496 1495 1500 1502 1499 1500 1502 1501 1505 1507 1506 1504 1502 1503 1502 1501 1506 1509 1513 1517 1516 1519 1521 1521 1522 1523 1525 1527 1529 1533 1533 1533 1534 1535 1538 1540
1468 1467 1467 1466 1466 1466 1467 1467 1467 1467 1467 1468 1468 1469 1470 1471 1471 1471 1470 1471 1472 1472 1472 1470 1471 1468 1458 1456 1459 1458 1458 1458 1458 1460 1462 1464 1466 1469 1471 1472 1474 1476 1478 1482 1484 1486 1487 1490 1493 1493 1493 1494 1493 1492 1494 1495 1495 1497 1498 1497 1500 1502 1504 1506 1505 1505 1504 1504 1509 1510 1513 1518 1518 1520 1521 1522 1523 1524 1526 1527 1529 1535 1536 1536 1537 1538 1539 1541
1466 1465 1465 1464 1464 1464 1464 1465 1465 1466 1466 1466 1467 1468 1468 1469 1469 1468 1468 1468 1467 1467 1466 1465 1465 1462 1458 1458 1458 1457 1458 1457 1457 1458 1460 1463 1465 1467 1470 1472 1474 1476 1477 1478 1482 1485 1486 1488 1489 1486 1487 1489 1491 1492 1493 1495 1497 1497 1497 1497 1500 1501 1504 1507 1506 1506 1503 1507 1516 1514 1515 1520 1521 1522 1522 1523 1525 1526 1529 1529 1531 1537 1540 1540 1539 1539 1540 1540
1464 1463 1463 1462 1462 1462 1462 1462 1463 1463 1464 1464 1465 1466 1465 1466 1467 1466 1465 1465 1464 1463 1463 1462 1463 1461 1458 1459 1458 1458 1460 1457 1456 1457 1458 1461 1463 1466 1468 1470 1471 1474 1476 1477 1481 1485 1485 1486 1484 1483 1485 1488 1492 1494 1494 1497 1499 1498 1496 1497 1500 1501 1506 1509 1507 1506 1503 1508 1519 1518 1518 1524 1524 1524 1525 1525 1527 1529 1530 1531 1533 1536 1540 1543 1543 1541 1541 1542
1462 1461 1460 1460 1460 1460 1460 1460 1460 1461 1461 1462 1463 1463 1463 1464 1464 1464 1464 1463 1461 1461 1461 1461 1461 1458 1456 1457 1458 1460 1463 1460 1456 1455 1457 1459 1461 1463 1466 1468 1469 1472 1476 1477 1480 1485 1487 1484 1483 1485 1487 1489 1494 1494 1494 1496 1498 1498 1497 1497 1498 1501 1507 1511 1508 1505 1503 1509 1520 1520 1521 1527 1527 1526 1527 1527 1529 1531 1532 1533 1533 1535 1537 1542 1546 1546 1545 1545
1460 1459 1458 1458 1457 1457 1457 1457 1458 1458 1459 1460 1460 1461 1461 1463 1464 1464 1464 1463 1459 1458 1457 1457 1458 1456 1453 1455 1458 1460 1462 1461 1457 1455 1456 1458 1459 1461 1463 1466 1468 1472 1475 1475 1476 1482 1485 1483 1483 1486 1487 1489 1495 1495 1493 1495 1497 1498 1498 1497 1498 1501 1505 1509 1511 1509 1505 1508 1516 1519 1523 1528 1529 1530 1530 1530 1532 1532 1534 1534 1533 1535 1537 1540 1545 1548 1548 1547
1458 1457 1456 1455 1455 1455 1455 1455 1455 1456 1457 1457 1458 1458 1460 1462 1463 1463 1464 1463 1458 1454 1453 1453 1454 1452 1450 1453 1456 1458 1458 1458 1456 1453 1454 1456 1458 1460 1462 1464 1468 1472 1474 1473 1475 1478 1480 1480 1483 1486 1487 1488 1493 1496 1494 1494 1497 1499 1499 1497 1497 1500 1503 1506 1510 1509 1508 1511 1512 1516 1528 1533 1531 1533 1533 1533 1533 1533 1535 1535 1534 1536 1538 1539 1542 1546 1548 1548
1456 1456 1454 1454 1454 1453 1453 1453 1452 1454 1454 1455 1455 1456 1459 1460 1462 1463 1463 1463 1458 1452 1450 1450 1451 1447 1446 1451 1454 1455 1457 1455 1452 1451 1452 1454 1456 1458 1461 1464 1466 1470 1474 1475 1477 1478 1479 1481 1483 1485 1487 1487 1490 1494 1493 1492 1496 1499 1499 1497 1495 1499 1503 1508 1508 1507 1515 1524 1517 1516 1531 1539 1534 1534 1535 1534 1534 1535 1535 1535 1536 1537 1538 1539 1542 1545 1547 1548
1456 1454 1453 1452 1452 1451 1452 1451 1450 1452 1452 1452 1453 1454 1457 1458 1460 1462 1462 1464 1456 1447 1447 1448 1446 1442 1442 1447 1451 1455 1457 1451 1447 1449 1451 1453 1455 1456 1460 1463 1464 1470 1473 1475 1477 1478 1480 1482 1482 1483 1486 1487 1489 1492 1491 1491 1496 1499 1497 1496 1496 1498 1502 1507 1505 1505 1515 1522 1517 1513 1524 1536 1537 1534 1534 1534 1535 1537 1536 1536 1536 1537 1538 1540 1543 1546 1547 1549
1455 1454 1452 1451 1450 1450 1450 1449 1449 1450 1449 1451 1451 1453 1456 1456 1460 1460 1463 1467 1454 1439 1441 1445 1442 1439 1438 1442 1447 1453 1453 1446 1444 1448 1449 1451 1455 1455 1458 1461 1463 1468 1471 1473 1477 1478 1478 1483 1483 1482 1484 1487 1488 1489 1490 1491 1493 1497 1495 1494 1497 1497 1500 1504 1502 1505 1512 1516 1518 1515 1514 1528 1538 1534 1532 1533 1535 1538 1537 1537 1537 1537 1538 1540 1543 1545 1546 1547
1454 1453 1451 1450 1449 1449 1449 1449 1449 1449 1449 1450 1450 1453 1455 1456 1459 1459 1462 1465 1446 1429 1434 1439 1438 1437 1438 1441 1444 1447 1446 1442 1443 1446 1448 1451 1454 1454 1457 1459 1461 1466 1468 1469 1474 1476 1477 1481 1482 1482 1484 1486 1485 1485 1489 1490 1491 1494 1495 1495 1495 1495 1499 1501 1501 1507 1513 1515 1523 1521 1512 1523 1536 1532 1530 1532 1534 1537 1537 1536 1537 1537 1538 1540 1541 1543 1544 1545
1454 1452 1450 1449 1448 1448 1448 1448 1449 1449 1449 1449 1451 1453 1454 1456 1459 1459 1463 1456 1434 1425 1430 1432 1435 1437 1438 1441 1443 1443 1443 1442 1441 1443 1448 1451 1452 1453 1455 1458 1460 1465 1468 1467 1470 1475 1475 1476 1478 1479 1481 1482 1483 1485 1487 1489 1489 1492 1495 1495 1496 1499 1501 1503 1503 1507 1512 1515 1524 1523 1513 1520 1534 1533 1531 1533 1533 1533 1534 1535 1536 1537 1539 1540 1541 1542 1543 1545
1454 1451 1449 1447 1447 1448 1447 1447 1448 1449 1449 1449 1450 1452 1453 1456 1458 1459 1463 1450 1428 1426 1430 1430 1433 1435 1436 1440 1443 1444 1443 1442 1441 1442 1447 1449 1451 1453 1455 1459 1461 1464 1469 1469 1469 1473 1474 1475 1477 1477 1478 1479 1482 1485 1487 1488 1489 1491 1494 1495 1499 1503 1503 1505 1506 1506 1512 1517 1518 1517 1512 1515 1528 1532 1528 1527 1525 1523 1528 1533 1535 1536 1539 1539 1540 1542 1544 1545
1454 1452 1450 1448 1448 1448 1448 1448 1448 1448 1448 1449 1450 1451 1453 1456 1457 1455 1451 1437 1427 1428 1430 1431 1433 1433 1435 1436 1438 1443 1443 1442 1441 1441 1444 1448 1450 1452 1453 1458 1460 1464 1471 1471 1471 1474 1474 1477 1478 1476 1477 1479 1482 1486 1488 1489 1489 1489 1491 1493 1500 1506 1507 1509 1511 1511 1517 1519 1515 1514 1513 1514 1521 1524 1521 1518 1517 1518 1522 1527 1530 1532 1536 1537 1539 1541 1543 1544
1453 1452 1451 1450 1449 1448 1448 1448 1448 1448 1449 1449 1450 1451 1453 1456 1456 1450 1438 1430 1431 1431 1427 1430 1432 1432 1434 1433 1435 1440 1442 1442 1441 1439 1441 1444 1447 1448 1449 1451 1455 1462 1471 1471 1471 1475 1475 1475 1476 1476 1476 1477 1479 1486 1491 1492 1490 1489 1489 1492 1500 1509 1513 1515 1516 1518 1518 1516 1518 1519 1517 1518 1517 1515 1516 1514 1515 1517 1519 1523 1526 1529 1532 1535 1537 1539 1542 1543
1452 1451 1450 1450 1449 1449 1448 1448 1448 1449 1449 1450 1450 1451 1453 1454 1450 1440 1433 1432 1434 1430 1425 1427 1430 1431 1433 1433 1435 1439 1440 1440 1440 1439 1440 1443 1446 1448 1449 1451 1451 1455 1464 1468 1471 1476 1478 1478 1476 1475 1477 1475 1474 1480 1487 1490 1488 1487 1486 1488 1495 1505 1516 1521 1522 1524 1519 1515 1520 1520 1517 1520 1516 1513 1517 1516 1514 1516 1518 1522 1526 1529 1532 1534 1536 1538 1540 1542
1451 1450 1450 1450 1449 1448 1448 1448 1448 1449 1449 1450 1450 1451 1453 1451 1442 1434 1435 1436 1434 1429 1426 1426 1429 1432 1433 1432 1433 1435 1437 1439 1439 1438 1441 1443 1446 1448 1449 1453 1452 1452 1459 1466 1470 1472 1477 1480 1474 1472 1475 1473 1472 1473 1476 1481 1484 1486 1484 1483 1489 1495 1504 1513 1514 1515 1516 1516 1522 1522 1519 1518 1515 1516 1519 1516 1516 1517 1517 1522 1526 1529 1533 1534 1536 1538 1539 1541
1451 1450 1449 1449 1449 1448 1448 1448 1448 1448 1449 1450 1451 1453 1452 1445 1438 1436 1438 1439 1435 1431 1429 1427 1428 1432 1434 1433 1433 1433 1433 1437 1438 1438 1439 1440 1442 1445 1447 1451 1452 1452 1455 1463 1470 1470 1472 1475 1469 1468 1471 1469 1472 1474 1473 1478 1485 1488 1486 1486 1489 1487 1490 1506 1511 1509 1511 1514 1519 1522 1521 1519 1517 1518 1518 1515 1517 1517 1517 1522 1525 1528 1532 1533 1535 1536 1537 1540
1450 1450 1449 1449 1448 1448 1448 1448 1448 1449 1448 1449 1450 1451 1447 1442 1440 1440 1440 1440 1438 1435 1433 1430 1429 1432 1434 1433 1434 1433 1431 1434 1437 1438 1441 1441 1441 1444 1446 1449 1451 1451 1451 1458 1468 1470 1471 1473 1469 1469 1471 1468 1470 1473 1473 1476 1482 1488 1489 1486 1487 1484 1486 1502 1514 1518 1514 1508 1514 1521 1521 1522 1520 1517 1517 1516 1517 1517 1518 1521 1523 1525 1529 1531 1533 1535 1536 1538
1450 1449 1449 1448 1448 1448 1448 1448 1449 1449 1448 1449 1449 1447 1443 1441 1442 1442 1442 1441 1439 1436 1434 1430 1428 1430 1431 1431 1432 1431 1430 1433 1435 1437 1442 1443 1442 1443 1445 1448 1450 1450 1449 1454 1462 1466 1467 1471 1471 1469 1471 1470 1469 1472 1473 1473 1475 1483 1487 1483 1484 1487 1489 1493 1504 1516 1514 1506 1514 1522 1520 1520 1518 1514 1517 1518 1517 1517 1517 1519 1522 1524 1527 1529 1532 1533 1534 1536
1450 1449 1449 1449 1448 1448 1449 1449 1449 1449 1449 1450 1448 1444 1443 1442 1442 1442 1443 1441 1438 1436 1434 1429 1426 1426 1427 1428 1429 1429 1428 1432 1434 1436 1440 1441 1442 1442 1443 1447 1449 1449 1449 1450 1456 1461 1462 1469 1473 1468 1467 1470 1470 1472 1476 1476 1474 1476 1478 1477 1481 1487 1492 1495 1499 1507 1510 1508 1515 1522 1520 1517 1511 1511 1516 1514 1512 1514 1515 1517 1520 1522 1525 1527 1530 1532 1534 1536
1450 1449 1449 1449 1449 1449 1449 1449 1449 1449 1449 1449 1447 1444 1443 1443 1441 1441 1442 1441 1438 1436 1434 1428 1425 1425 1425 1425 1426 1427 1428 1430 1432 1435 1438 1439 1441 1441 1441 1444 1447 1449 1450 1448 1453 1459 1459 1466 1472 1469 1466 1469 1471 1471 1473 1476 1476 1476 1476 1477 1479 1482 1485 1490 1493 1494 1498 1505 1511 1519 1524 1515 1502 1501 1505 1504 1505 1509 1512 1515 1518 1520 1523 1525 1528 1531 1533 1535
1449 1449 1449 1449 1449 1449 1448 1448 1448 1448 1448 1447 1445 1444 1443 1442 1440 1439 1440 1441 1439 1436 1433 1428 1425 1424 1424 1424 1425 1426 1428 1430 1431 1434 1435 1436 1440 1443 1441 1441 1445 1448 1450 1450 1453 1458 1460 1463 1468 1470 1470 1470 1470 1468 1466 1469 1474 1475 1477 1479 1481 1483 1483 1485 1490 1490 1492 1500 1509 1514 1513 1502 1493 1494 1496 1496 1501 1505 1508 1512 1515 1519 1522 1524 1527 1530 1532 1535
1449 1449 1449 1449 1449 1449 1448 1448 1447 1447 1447 1446 1445 1443 1442 1441 1440 1438 1438 1439 1438 1434 1431 1430 1427 1424 1423 1423 1423 1424 1427 1429 1430 1433 1435 1435 1438 1442 1440 1439 1442 1446 1449 1451 1452 1456 1459 1461 1465 1470 1471 1468 1465 1463 1462 1464 1467 1468 1472 1475 1476 1480 1482 1485 1492 1495 1492 1495 1503 1505 1497 1490 1492 1496 1494 1494 1497 1501 1506 1510 1513 1517 1520 1523 1527 1528 1531 1533
1448 1449 1449 1449 1449 1449 1448 1447 1447 1446 1445 1445 1443 1442 1441 1440 1440 1437 1435 1436 1434 1431 1430 1429 1427 1425 1422 1421 1421 1422 1425 1428 1429 1431 1433 1433 1434 1436 1436 1437 1439 1442 1447 1450 1451 1453 1455 1458 1463 1467 1467 1465 1463 1464 1464 1463 1464 1465 1467 1469 1471 1475 1476 1479 1487 1493 1495 1497 1500 1499 1492 1489 1497 1499 1494 1494 1497 1501 1506 1509 1513 1517 1519 1522 1525 1527 1529 1531
1449 1449 1449 1449 1449 1448 1448 1446 1446 1445 1444 1443 1441 1440 1440 1439 1438 1437 1435 1434 1431 1428 1428 1426 1423 1422 1421 1420 1420 1421 1423 1427 1430 1430 1431 1432 1431 1431 1432 1434 1437 1440 1444 1448 1450 1452 1454 1456 1461 1464 1465 1464 1464 1464 1465 1464 1465 1468 1467 1467 1470 1472 1472 1475 1480 1484 1490 1495 1496 1498 1495 1491 1497 1499 1494 1495 1498 1501 1506 1509 1512 1516 1518 1521 1523 1525 1528 1530
1450 1450 1449 1449 1449 1448 1448 1447 1446 1445 1443 1442 1440 1439 1438 1437 1436 1435 1433 1431 1429 1426 1425 1423 1420 1419 1419 1418 1418 1420 1422 1426 1430 1429 1429 1430 1429 1430 1431 1432 1435 1438 1441 1445 1446 1448 1453 1458 1460 1463 1468 1472 1471 1469 1469 1468 1467 1467 1467 1468 1468 1470 1474 1478 1482 1482 1485 1487 1488 1491 1491 1490 1497 1500 1495 1496 1499 1502 1507 1510 1511 1514 1518 1520 1522 1525 1528 1530
1450 1450 1449 1449 1448 1448 1447 1446 1446 1445 1443 1441 1440 1438 1436 1435 1432 1430 1430 1428 1427 1426 1424 1421 1419 1418 1419 1418 1418 1420 1422 1423 1427 1428 1429 1429 1430 1431 1432 1433 1435 1436 1439 1442 1443 1444 1451 1457 1458 1460 1467 1473 1473 1470 1467 1468 1468 1466 1467 1469 1468 1470 1474 1476 1481 1484 1485 1488 1487 1483 1484 1491 1501 1501 1496 1497 1500 1502 1507 1510 1510 1513 1517 1520 1522 1525 1528 1530
1451 1451 1450 1449 1447 1447 1446 1445 1446 1445 1443 1442 1439 1436 1435 1434 1429 1427 1427 1426 1424 1424 1423 1421 1419 1418 1419 1418 1419 1422 1423 1422 1425 1426 1427 1428 1429 1431 1432 1434 1436 1437 1439 1442 1442 1445 1451 1456 1456 1455 1457 1461 1461 1462 1463 1464 1464 1465 1466 1467 1468 1470 1470 1471 1478 1480 1481 1488 1489 1482 1482 1489 1498 1502 1498 1498 1500 1502 1505 1507 1509 1512 1515 1518 1522 1524 1527 1529
1452 1452 1451 1450 1448 1446 1445 1444 1444 1444 1442 1441 1439 1436 1434 1433 1429 1426 1425 1424 1423 1422 1422 1421 1419 1419 1419 1418 1419 1423 1425 1425 1425 1425 1425 1426 1429 1431 1433 1435 1436 1437 1439 1441 1442 1446 1451 1455 1457 1455 1455 1459 1459 1462 1465 1463 1460 1460 1462 1463 1465 1468 1469 1470 1474 1473 1475 1483 1485 1484 1487 1485 1486 1495 1496 1494 1497 1499 1501 1504 1507 1510 1513 1517 1521 1523 1526 1528
1452 1452 1451 1451 1450 1447 1444 1443 1442 1441 1440 1440 1438 1436 1434 1432 1429 1427 1426 1423 1422 1421 1420 1420 1419 1420 1420 1418 1418 1423 1426 1426 1427 1427 1426 1426 1429 1432 1434 1437 1437 1437 1440 1442 1443 1445 1448 1453 1458 1457 1459 1465 1466 1466 1466 1463 1461 1461 1460 1460 1462 1465 1467 1467 1468 1468 1470 1472 1472 1479 1487 1479 1476 1486 1489 1488 1492 1495 1499 1504 1506 1510 1513 1516 1519 1522 1525 1527
1452 1451 1450 1450 1449 1446 1444 1442 1440 1439 1438 1437 1437 1435 1434 1432 1429 1428 1427 1425 1423 1421 1419 1421 1422 1421 1421 1419 1418 1421 1424 1425 1426 1428 1427 1427 1429 1431 1434 1438 1438 1438 1440 1442 1444 1445 1446 1451 1457 1456 1457 1464 1468 1468 1466 1463 1462 1462 1462 1463 1463 1463 1464 1463 1466 1470 1471 1470 1471 1476 1480 1475 1473 1479 1483 1487 1493 1496 1500 1505 1506 1509 1513 1515 1518 1520 1523 1526
1453 1452 1450 1450 1448 1445 1443 1441 1440 1438 1437 1436 1435 1434 1433 1433 1430 1428 1427 1425 1424 1422 1420 1423 1424 1422 1421 1419 1417 1421 1424 1422 1423 1424 1425 1427 1428 1428 1430 1434 1436 1438 1440 1442 1444 1446 1446 1453 1458 1455 1456 1463 1466 1467 1466 1464 1462 1461 1463 1468 1467 1466 1467 1466 1471 1476 1475 1476 1480 1482 1480 1477 1476 1479 1483 1488 1493 1495 1499 1502 1504 1508 1511 1513 1516 1519 1521 1524
1453 1452 1451 1450 1448 1444 1443 1442 1440 1439 1437 1435 1435 1433 1432 1432 1431 1430 1428 1424 1424 1425 1423 1424 1424 1422 1421 1420 1419 1422 1424 1422 1422 1423 1423 1424 1425 1425 1426 1428 1432 1437 1440 1442 1444 1444 1446 1455 1460 1456 1456 1462 1466 1467 1466 1465 1464 1462 1463 1468 1468 1467 1469 1470 1472 1474 1470 1473 1483 1487 1482 1476 1474 1478 1483 1486 1490 1493 1496 1499 1502 1505 1508 1510 1513 1516 1519 1522
1452 1451 1450 1450 1448 1444 1443 1442 1441 1440 1437 1435 1435 1434 1432 1431 1430 1430 1428 1424 1424 1425 1424 1424 1423 1422 1422 1422 1422 1423 1422 1422 1422 1423 1423 1424 1424 1424 1425 1427 1429 1432 1436 1441 1443 1444 1446 1452 1456 1456 1456 1461 1468 1469 1465 1463 1463 1461 1460 1463 1466 1467 1470 1470 1471 1472 1468 1468 1475 1475 1470 1467 1471 1477 1481 1484 1487 1489 1490 1493 1496 1499 1504 1507 1510 1513 1517 1520